FENGYUN 1C DEB

Satellite information

Favourite Embed

Satellite Type and Status

DEBRISIN ORBIT

Key statistics

Satellite FENGYUN 1C DEB at a glance.

Uptime

9555

Days in orbit

Revolutions

≈ 14.3

Per day

Orbit

SSO

Sun Synchronous Orbit

Inclination

99.3

Latest

Satellite identification and parameters

Extended collection of information and parameters for FENGYUN 1C DEB.

Object identification

Identified? True

Debris? True

Object name: FENGYUN 1C DEB

International designator: 1999-025CLT

Object number (NORAD): 31916

Object ID (CCSDS): 31916

Country: PEOPLES REPUBLIC OF CHINA (PRC)

Current information (Y/N): Y

RCS size: SMALL

Orbital parameters

Period: 100.643 minutes

Inclination: 99.3375 deg

SMA: 7167.194 km

Apoapsis: 896.927 km

Periapsis: 681.19 km

RAAN: 259.0922 deg

Eccentricy: 0.0150503

Argument of periapsis: 198.6553 deg

Mean anomaly: 160.9075 deg

Mean motion: 14.30800342 rev/day

Mean motion (dot): 0.00003283 rev/day2

B* drag term: 0.0011245 1/REarth

Two-line elements (TLE)

Creation date: July 5, 2025, 4:36 a.m.

Reference frame: TEME

Reference center: EARTH

Epoch: July 4, 2025, 10:07 p.m. UTC

TLE line 0: 0 FENGYUN 1C DEB

TLE line 1: 1 31916U 99025CLT 25185.92175175 .00003283 00000-0 11245-2 0 9994

TLE line 2: 2 31916 99.3375 259.0922 0150503 198.6553 160.9075 14.30800342622269

Live tracking on map

Real-time ground track for satellite FENGYUN 1C DEB.

In-orbit conjunctions

A list of the most updated potential collisions computed for object FENGYUN 1C DEB.

Target Orbit TCA Probability of collision Miss distance Type
COSMOS 1275 DEB LEO 2025-05-21 19:25:16 0.0004202052 98.0 (m) DEBRIS
IRIDIUM 33 DEB LEO 2024-07-06 01:32:35 0.0002427955 56.0 (m) DEBRIS

Associated space launch

Chinese polar orbiting meteorological satellite

FENGYUN 1C DEB was lifted into orbit during the mission ‘Long March 4B | Feng Yun 1C’, on board a Long March 4B space rocket.

The launch took place on May 10, 1999, 1:33 a.m. from Launch Complex 7.

For more information about the launch, click the button.

Launch to space Long March 4B | Feng Yun 1C
Long March 4B | Feng Yun 1C

Agency: N/A

Status: Launch Successful

Launch date: May 10, 1999, 1:33 a.m. UTC

Rocket: Long March 4B

Launch pad: Launch Complex 7

Location: Taiyuan Satellite Launch Center, People's Republic of China

...

Latest news about this satellite

There are no fresh news available about this satellite. Check back as we update our databases every day.


Newsletter sign-up

Weekly statistics, charts and insights to help you stay on top of the space industry.